Location: Newark
(45.9456°N, 15.4064°E)
Time: 14:38:35
(UTC+00:00)

Transit 2A Rocket - Pass Details

Date: 31 January 2020
Orbit: 591 x 912 km, 66.7° (Epoch: 29 February)

Event Time Altitude Azimuth Distance (km) Brightness Sun altitude
Exits shadow 05:07:12 12° 324° (NW) 1,832 6.5 -13.3°
Maximum altitude 05:07:32 12° 329° (NNW) 1,830 6.6 -13.2°
Drops below altitude 10° 05:09:16 10° 352° (N) 1,980 7.0 -12.9°
Sets 05:13:04 0° 24° (NNE) 2,946 8.2 -12.3°
